Location: Beaver Meadows
(40.3729°N, 105.6140°W)
Time: 10:38:54
(UTC-06:00)

Iridium 67 - Visible Passes

Search period start: 21 July 2017 00:00
Search period end: 31 July 2017 00:00
Orbit: 776 x 779 km, 86.4° (Epoch: 21 July)

Date Brightness Start Highest point End Pass type
(mag) Time Alt. Az. Time Alt. Az. Time Alt. Az.
24 Jul 8.8 04:58:08 10° NE 05:00:03 12° ENE 05:01:58 10° E visible
27 Jul 8.4 04:56:58 10° NE 05:00:24 17° ENE 05:03:48 10° ESE visible
30 Jul 8.0 04:56:25 10° NNE 05:00:41 25° ENE 05:04:54 10° SE visible
